星链-5159 (STARLINK-5159 )

导读 | 豆包AI

STARLINK-5159是美国SpaceX星链互联网卫星星座的一员,于2022年10月5日发射升空。星链项目旨在构建全球卫星互联网络,为全球偏远地区、海洋空域等高覆盖盲区提供高速低延迟的宽带服务。该卫星入轨后参与星座组网,服务全球用户的互联网接入需求,进一步拓展了星链星座的覆盖规模与服务能力。

Basic Information
目录编号:
53974
目录名称:
STARLINK-5159
国际标识:
2022-125L
轨道中心:
EARTH
卫星名称:
星链-5159
卫星全名:
星链-5159 (STARLINK-5159 )
卫星状态:
在轨 (已飞行1303 天)
发射日期:
2022-10-05 UTC
国别 :
美国 (US)
星等 :
--
Orbit Information
数据来源 国际轨道数据 AOE轨道数据
星历时间 2026-04-30T07:50:12+0800
16小时前
查看轨道信息
2026-04-30T17:00:00+0800
7小时前
查看轨道信息
半长轴 6917.857km 6917.869km
偏心率 0.0001491 0.0002293
轨道倾角 53.218° 53.218°
近地点辐角 87.094° 69.826°
升交点赤经 333.412° 331.698°
平近点角 273.022° 205.332°
近地点 538.688km 538.145km
远地点 540.752km 541.319km
周期 95.437分钟 95.437分钟
每日圈数 15.088477 15.088439
Detailed Information
固有亮度:
5
最大亮度:
2.5
卫星平台:
Starlink v1.5
覆盖范围:
全球
运营商:
太空探索技术公司
运营商所在国:
美国
制造商(研发单位):
太空探索技术公司
制造商所在国:
美国
使用方式:
暂无
Satellite Introduction
星链(Starlink)计划是由太空探索技术公司(SpaceX)提出的一个巨型低轨卫星互联网星座项目,计划在2019年至2024年间在太空搭建由约1.2万颗卫星组成的“星链”网络,其中1584颗将部署在地球上空550千米处的近地轨道,并从2020年开始工作。该卫星仍在工作。
2D Orbit Map
3D Orbit Map
Orbit Altitude Analysis Chart
Orbit Inclination Analysis Chart
Orbit Comprehensive Analysis Chart
View Comprehensive Chart